EW8974 Weather Reports


time (UTC)temp
C
wind
direction
speed
KPH
gust
KPH
rain 1hr
cm
rain 24hr
cm
rain mn
cm
humidity
%
barometer
mb
20260506112533 13 321 3.2 9.7 0.00 0.00 0.00 81 1005.1
20260506112035 13 300 3.2 9.7 0.00 0.00 0.00 82 1004.9
20260506111633 13 39 1.6 9.7 0.00 0.00 0.00 81 1005.0
20260506111031 13 49 1.6 11.3 0.00 0.00 0.00 81 1004.7
20260506110531 13 81 1.6 16.1 0.00 0.00 0.00 81 1004.8
20260506110033 13 118 4.8 14.5 0.00 0.00 0.00 81 1004.7
20260506105529 13 49 4.8 14.5 0.00 0.00 0.00 81 1004.7
20260506105031 13 56 1.6 14.5 0.00 0.00 0.00 82 1004.6
20260506104529 13 283 3.2 14.5 0.00 0.00 0.00 83 1004.5
20260506104026 13 56 3.2 8.0 0.00 0.00 0.00 84 1004.4
20260506103525 13 41 1.6 11.3 0.00 0.00 0.00 85 1004.3
20260506103032 13 87 1.6 14.5 0.00 0.00 0.00 85 1004.3
20260506102524 13 23 3.2 14.5 0.00 0.00 0.00 86 1004.1
20260506102023 13 13 1.6 8.0 0.00 0.00 0.00 86 1004.1
20260506101538 13 70 1.6 8.0 0.00 0.00 0.00 86 1003.9
20260506101023 13 51 1.6 8.0 0.00 0.00 0.00 87 1003.9
20260506100521 13 332 1.6 8.0 0.00 0.00 0.00 87 1004.0
20260506100021 13 307 0.0 6.4 0.00 0.00 0.00 88 1003.9
20260506095519 13 22 1.6 6.4 0.00 0.00 0.00 88 1003.6
20260506095022 13 34 1.6 6.4 0.00 0.00 0.00 88 1003.6
20260506094523 13 57 1.6 8.0 0.00 0.00 0.00 88 1003.6
20260506094022 13 5 1.6 8.0 0.00 0.00 0.00 88 1003.6
20260506093517 13 63 1.6 8.0 0.00 0.00 0.00 88 1003.5
20260506093021 13 352 0.0 8.0 0.00 0.00 0.00 88 1003.6
20260506092515 14 51 1.6 8.0 0.00 0.00 0.00 87 1003.6
20260506092016 14 44 1.6 9.7 0.00 0.00 0.00 87 1003.7
20260506091515 14 64 1.6 9.7 0.00 0.00 0.00 86 1003.5
20260506091013 14 1 0.0 8.0 0.00 0.00 0.00 85 1003.5
20260506090512 15 354 1.6 6.4 0.00 0.00 0.00 84 1003.5
20260506090010 15 341 1.6 8.0 0.00 0.00 0.00 84 1003.5
20260506085508 15 47 0.0 8.0 0.00 0.00 0.00 83 1003.4
20260506085006 15 30 0.0 8.0 0.00 0.00 0.00 81 1003.3
20260506084505 16 53 1.6 8.0 0.00 0.00 0.00 80 1003.3
20260506084004 16 56 3.2 9.7 0.00 0.00 0.00 79 1003.0
20260506083504 16 33 0.0 9.7 0.00 0.00 0.00 79 1003.2
20260506083004 16 320 1.6 6.4 0.00 0.00 0.00 80 1003.0
20260506082504 16 91 0.0 6.4 0.00 0.00 0.00 80 1002.9
20260506082001 16 18 0.0 6.4 0.00 0.00 0.00 80 1003.0
20260506081501 16 53 0.0 6.4 0.00 0.00 0.00 80 1002.8
20260506081003 16 79 1.6 8.0 0.00 0.00 0.00 80 1002.7
20260506080601 16 34 3.2 8.0 0.00 0.00 0.00 80 1002.7
20260506073056 16 48 3.2 6.4 0.00 0.00 0.00 80 1003.0
20260506072557 16 314 1.6 8.0 0.00 0.00 0.00 80 1003.1
20260506072054 17 115 3.2 9.7 0.00 0.00 0.00 80 1003.1
20260506071556 17 51 3.2 9.7 0.00 0.00 0.00 80 1003.1
20260506071054 17 70 0.0 9.7 0.00 0.00 0.00 79 1003.1
20260506070553 17 82 3.2 12.9 0.00 0.00 0.00 79 1003.2
20260506062047 17 39 1.6 12.9 0.00 0.00 0.00 79 1003.0
20260506061547 17 34 0.0 12.9 0.00 0.00 0.00 79 1003.0
20260506061046 17 3 1.6 9.7 0.00 0.00 0.00 79 1002.9
20260506060547 17 314 1.6 8.0 0.00 0.00 0.00 79 1002.8
20260506051034 20 74 3.2 12.9 0.00 0.00 0.00 77 1002.8
20260506050533 20 56 1.6 11.3 0.00 0.00 0.00 77 1002.8
20260506045030 20 55 3.2 14.5 0.00 0.00 0.00 76 1002.5
20260506044559 20 69 3.2 14.5 0.00 0.00 0.00 76 1002.7
20260506044031 20 304 1.6 14.5 0.00 0.00 0.00 76 1002.8
20260506043529 20 25 1.6 8.0 0.00 0.00 0.00 76 1002.6
20260506043031 20 20 1.6 11.3 0.00 0.00 0.00 76 1002.6
20260506042528 20 302 0.0 11.3 0.00 0.00 0.00 75 1002.6
20260506042027 21 356 1.6 8.0 0.00 0.00 0.00 74 1002.6
20260506041526 21 321 1.6 8.0 0.00 0.00 0.00 74 1002.5
20260506041030 21 52 1.6 12.9 0.00 0.00 0.00 74 1002.4
20260506040525 21 59 3.2 11.3 0.00 0.00 0.00 73 1002.3
20260506040028 21 330 1.6 9.7 0.00 0.00 0.00 73 1002.4
20260506035526 21 349 1.6 8.0 0.00 0.00 0.00 73 1002.2
20260506035022 21 77 3.2 8.0 0.00 0.00 0.00 73 1002.0
20260506034543 21 44 1.6 8.0 0.00 0.00 0.00 73 1001.8
20260506034022 21 46 3.2 9.7 0.00 0.00 0.00 72 1001.6
20260506033522 21 46 1.6 11.3 0.00 0.00 0.00 72 1001.7
20260506033021 21 56 3.2 11.3 0.00 0.00 0.00 71 1001.5
20260506032521 22 98 3.2 11.3 0.00 0.00 0.00 71 1001.5
20260506032024 22 75 3.2 9.7 0.00 0.00 0.00 71 1001.5
20260506031521 22 53 0.0 14.5 0.00 0.00 0.00 71 1001.5
20260506031021 22 68 4.8 14.5 0.00 0.00 0.00 71 1001.6
20260506030522 22 61 1.6 11.3 0.00 0.00 0.00 70 1001.5
20260506030019 22 41 3.2 9.7 0.00 0.00 0.00 70 1001.5
20260506025518 23 19 1.6 11.3 0.00 0.00 0.00 71 1001.4
20260506025018 23 36 3.2 11.3 0.00 0.00 0.00 70 1001.1
20260506024517 23 12 3.2 9.7 0.00 0.00 0.00 71 1001.0
20260506024017 23 39 1.6 8.0 0.00 0.00 0.00 71 1000.9
20260506023519 23 40 1.6 11.3 0.00 0.00 0.00 70 1000.7
20260506023017 24 72 3.2 11.3 0.00 0.00 0.00 70 1000.6
20260506022516 25 13 1.6 6.4 0.00 0.00 0.00 75 1000.5
20260506022016 25 329 0.0 3.2 0.00 0.00 0.00 81 1000.1
20260506021516 25 310 0.0 1.6 0.00 0.00 0.00 82 999.9
20260506021016 25 154 0.0 0.0 0.00 0.00 0.00 82 999.7
20260506020515 25 154 0.0 1.6 0.00 0.00 0.00 82 999.8
20260506020016 25 154 0.0 1.6 0.00 0.00 0.00 82 999.8
20260506015517 25 151 0.0 0.0 0.00 0.00 0.00 82 999.7
20260506015015 25 151 0.0 0.0 0.00 0.00 0.00 81 999.5
20260506014517 25 151 0.0 0.0 0.00 0.00 0.00 81 999.7
20260506014014 25 151 0.0 0.0 0.00 0.00 0.00 80 999.5
20260506013514 25 151 0.0 0.0 0.00 0.00 0.00 79 999.5
20260506013015 25 151 0.0 0.0 0.00 0.00 0.00 79 999.3
20260506012514 25 151 0.0 1.6 0.00 0.00 0.00 78 999.3
20260506012015 26 151 0.0 3.2 0.00 0.00 0.00 78 999.4
20260506011517 26 320 0.0 8.0 0.00 0.00 0.00 78 999.3
20260506011018 26 299 3.2 8.0 0.00 0.00 0.00 78 999.0
20260506010514 26 195 1.6 8.0 0.00 0.00 0.00 77 998.7
20260506010014 26 239 1.6 6.4 0.00 0.00 0.00 77 998.6
20260506005513 26 231 1.6 8.0 0.00 0.00 0.00 77 998.6
20260506005013 26 249 1.6 9.7 0.00 0.00 0.00 77 998.6
20260506004529 26 214 1.6 9.7 0.00 0.00 0.00 76 998.5
20260506004014 26 198 1.6 9.7 0.00 0.00 0.00 76 998.5
20260506003512 26 181 1.6 8.0 0.00 0.00 0.00 76 998.5
20260506003113 26 223 1.6 8.0 0.00 0.00 0.00 75 998.5
20260506002511 27 163 1.6 11.3 0.00 0.00 0.00 75 998.5
20260506002012 27 143 4.8 12.9 0.00 0.00 0.00 74 998.5
20260506001511 27 237 1.6 12.9 0.00 0.00 0.00 74 998.4
20260506001012 27 247 1.6 12.9 0.00 0.00 0.00 75 998.3
20260506000510 27 200 1.6 14.5 0.00 0.00 0.00 75 998.4
20260506000011 27 248 4.8 14.5 0.00 0.00 0.00 74 998.4
20260505235510 27 214 3.2 11.3 0.00 0.00 0.00 74 998.3
20260505235010 27 205 1.6 9.7 0.00 0.00 0.00 73 998.3
20260505234513 27 245 1.6 11.3 0.00 0.00 0.00 73 998.5
20260505234014 27 148 3.2 11.3 0.00 0.00 0.00 72 998.4
20260505233513 28 242 1.6 16.1 0.00 0.00 0.00 72 998.3
20260505233010 28 269 4.8 16.1 0.00 0.00 0.00 71 998.4
20260505232509 28 226 1.6 12.9 0.00 0.00 0.00 71 998.4
20260505232009 28 203 4.8 12.9 0.00 0.00 0.00 70 998.3
20260505231513 28 203 1.6 17.7 0.00 0.00 0.00 69 998.2
20260505231009 28 169 6.4 17.7 0.00 0.00 0.00 69 998.2
20260505230509 29 214 1.6 12.9 0.00 0.00 0.00 68 998.1
20260505230011 30 193 4.8 17.7 0.00 0.00 0.00 67 998.1
20260505225508 30 151 6.4 17.7 0.00 0.00 0.00 66 998.0
20260505225009 30 168 4.8 14.5 0.00 0.00 0.00 66 997.8
20260505224509 30 228 6.4 14.5 0.00 0.00 0.00 65 997.8
20260505224007 30 36 1.6 16.1 0.00 0.00 0.00 66 997.8
20260505223507 31 233 6.4 16.1 0.00 0.00 0.00 64 997.8
20260505223008 31 236 8.0 16.1 0.00 0.00 0.00 64 997.7
20260505222509 31 228 6.4 14.5 0.00 0.00 0.00 64 997.7
20260505222007 31 184 4.8 17.7 0.00 0.00 0.00 63 997.8
20260505221507 31 234 9.7 17.7 0.00 0.00 0.00 62 997.7
20260505221008 31 217 1.6 16.1 0.00 0.00 0.00 62 997.7
20260505220507 31 233 3.2 12.9 0.00 0.00 0.00 62 997.7
20260505220016 31 181 3.2 12.9 0.00 0.00 0.00 62 998.0
20260505215506 31 187 1.6 19.3 0.00 0.00 0.00 62 997.7
20260505215005 31 237 11.3 19.3 0.00 0.00 0.00 58 997.7
20260505214505 31 199 4.8 12.9 0.00 0.00 0.00 61 997.7
20260505214005 31 203 4.8 12.9 0.00 0.00 0.00 61 997.7
20260505213503 31 233 1.6 11.3 0.00 0.00 0.00 62 997.7
20260505213002 31 219 3.2 17.7 0.00 0.00 0.00 61 997.9
20260505212503 31 205 8.0 17.7 0.00 0.00 0.00 59 998.0
20260505212002 31 160 4.8 16.1 0.00 0.00 0.00 59 997.9
20260505211502 31 288 8.0 17.7 0.00 0.00 0.00 60 998.0
20260505211103 31 172 6.4 17.7 0.00 0.00 0.00 60 998.2
20260505210600 31 233 6.4 17.7 0.00 0.00 0.00 61 998.4
20260505210059 31 219 8.0 17.7 0.00 0.00 0.00 59 998.4
20260505205600 31 244 4.8 17.7 0.00 0.00 0.00 60 998.3
20260505205100 31 238 4.8 17.7 0.00 0.00 0.00 60 998.2
20260505204603 31 271 4.8 12.9 0.00 0.00 0.00 61 998.3
20260505204056 31 193 3.2 16.1 0.00 0.00 0.00 61 998.5
20260505203556 31 222 6.4 16.1 0.00 0.00 0.00 61 998.7
20260505203056 31 195 4.8 20.9 0.00 0.00 0.00 62 998.6
20260505202554 31 201 9.7 20.9 0.00 0.00 0.00 61 998.8
20260505202052 30 207 8.0 17.7 0.00 0.00 0.00 63 998.8
20260505201551 30 231 6.4 20.9 0.00 0.00 0.00 64 998.8
20260505201050 30 203 4.8 20.9 0.00 0.00 0.00 64 998.8
20260505200550 30 154 4.8 17.7 0.00 0.00 0.00 64 999.0
20260505200049 30 235 6.4 25.7 0.00 0.00 0.00 65 999.0
20260505195549 30 230 8.0 19.3 0.00 0.00 0.00 65 998.8
20260505195048 30 263 9.7 19.3 0.00 0.00 0.00 63 999.0
20260505194548 30 231 8.0 16.1 0.00 0.00 0.00 64 998.9
20260505194048 30 219 4.8 20.9 0.00 0.00 0.00 66 999.0
20260505193547 30 316 6.4 20.9 0.00 0.00 0.00 64 999.1
20260505193049 30 229 9.7 19.3 0.00 0.00 0.00 65 999.2
20260505192546 30 214 8.0 14.5 0.00 0.00 0.00 64 999.2
20260505192044 29 266 4.8 17.7 0.00 0.00 0.00 67 999.2
20260505191554 29 235 6.4 17.7 0.00 0.00 0.00 66 999.2
20260505191043 29 219 3.2 20.9 0.00 0.00 0.00 67 999.2
20260505190543 28 259 6.4 20.9 0.00 0.00 0.00 67 999.3
20260505190044 28 205 4.8 19.3 0.00 0.00 0.00 67 999.5
20260505185539 28 209 6.4 19.3 0.00 0.00 0.00 66 999.4
20260505185039 28 206 9.7 20.9 0.00 0.00 0.00 68 999.4
20260505184539 28 270 11.3 25.7 0.00 0.00 0.00 67 999.4
20260505184039 28 305 9.7 25.7 0.00 0.00 0.00 67 999.5
20260505183538 28 174 9.7 19.3 0.00 0.00 0.00 67 999.6
20260505183037 28 329 6.4 17.7 0.00 0.00 0.00 68 999.7
20260505182536 28 242 9.7 20.9 0.00 0.00 0.00 68 999.8
20260505182040 28 239 8.0 20.9 0.00 0.00 0.00 68 999.8
20260505181534 28 311 6.4 17.7 0.00 0.00 0.00 69 999.8
20260505181034 27 311 6.4 19.3 0.00 0.00 0.00 71 999.8
20260505180533 27 219 8.0 19.3 0.00 0.00 0.00 70 999.9
20260505180044 27 192 6.4 16.1 0.00 0.00 0.00 70 999.9
20260505175531 27 248 8.0 16.1 0.00 0.00 0.00 70 999.9
20260505175033 27 283 4.8 19.3 0.00 0.00 0.00 71 1000.0
20260505174537 27 305 4.8 19.3 0.00 0.00 0.00 71 999.9
20260505174028 27 342 9.7 24.1 0.00 0.00 0.00 70 999.7
20260505173528 27 284 6.4 24.1 0.00 0.00 0.00 71 999.7
20260505173027 27 238 9.7 22.5 0.00 0.00 0.00 71 999.6
20260505172529 27 172 8.0 22.5 0.00 0.00 0.00 72 999.6
20260505172024 26 196 9.7 20.9 0.00 0.00 0.00 72 999.7
20260505171530 26 263 9.7 20.9 0.00 0.00 0.00 74 999.8
20260505171022 26 224 8.0 20.9 0.00 0.00 0.00 74 999.7
20260505170520 26 224 6.4 22.5 0.00 0.00 0.00 75 1000.0
20260505170025 26 206 8.0 24.1 0.00 0.00 0.00 75 999.9
20260505165523 25 192 8.0 25.7 0.00 0.00 0.00 75 999.9
20260505165019 25 237 8.0 25.7 0.00 0.00 0.00 76 999.8
20260505164520 25 237 11.3 25.7 0.00 0.00 0.00 74 999.8
20260505164020 25 254 9.7 24.1 0.00 0.00 0.00 75 999.6
20260505163518 25 265 8.0 25.7 0.00 0.00 0.00 75 999.7
20260505163021 25 239 11.3 25.7 0.00 0.00 0.00 75 999.7
20260505162516 25 243 9.7 20.9 0.00 0.00 0.00 76 999.8
20260505162014 25 225 9.7 20.9 0.00 0.00 0.00 77 999.9
20260505161514 25 219 8.0 29.0 0.00 0.00 0.00 77 999.8
20260505161012 24 228 9.7 29.0 0.00 0.00 0.00 78 1000.0
20260505160512 24 184 11.3 22.5 0.00 0.00 0.00 77 999.8
20260505153007 23 233 6.4 24.1 0.00 0.00 0.00 80 1000.0
20260505152506 23 218 9.7 22.5 0.00 0.00 0.00 80 999.9
20260505152006 23 245 11.3 22.5 0.00 0.00 0.00 80 999.9
20260505151505 23 248 11.3 22.5 0.00 0.00 0.00 80 999.9
20260505151004 23 240 9.7 22.5 0.00 0.00 0.00 80 1000.0
20260505150505 23 256 12.9 22.5 0.00 0.00 0.00 80 1000.0
20260505140555 22 240 11.3 24.1 0.00 0.00 0.00 83 999.8
20260505124546 20 253 8.0 19.3 0.00 0.00 0.00 88 999.2
20260505124045 20 232 11.3 19.3 0.00 0.00 0.00 88 999.2
20260505123545 20 250 8.0 17.7 0.00 0.00 0.00 88 999.2
20260505123103 20 228 4.8 17.7 0.00 0.00 0.00 88 999.2
20260505122544 20 239 8.0 17.7 0.00 0.00 0.00 88 998.9
20260505122043 20 219 9.7 17.7 0.00 0.00 0.00 88 999.1
20260505121542 20 191 8.0 17.7 0.00 0.00 0.00 89 998.7
20260505121042 20 279 8.0 17.7 0.00 0.00 0.00 89 998.7
20260505120542 20 218 6.4 20.9 0.00 0.00 0.00 88 998.8
20260505120045 20 231 6.4 17.7 0.00 0.00 0.00 88 998.7
20260505115542 20 153 3.2 17.7 0.00 0.00 0.00 88 998.8
20260505115040 20 291 6.4 20.9 0.00 0.00 0.00 88 998.8
20260505114558 20 256 8.0 20.9 0.00 0.00 0.00 88 998.7
20260505114039 20 245 8.0 19.3 0.00 0.00 0.00 88 998.6
20260505113541 20 234 6.4 17.7 0.00 0.00 0.00 88 998.6
20260505113040 20 210 9.7 19.3 0.00 0.00 0.00 88 998.7